Date String (YYYY-MM-DD hh:mm:ss) UTC,Instrument flags,Ambient pressure (hPa),Sample flow (lpm),Bypass flow (lpm),Sample temperature (°C),Ambient temperature (°C),ASC tube jacket temperature (°C),LED temperature (°C),Box temperature (°C),Sample RH (%),Span deviation,Mass concentration (μg/m³),Mass concentration (μg/m³),Mass concentration (μg/m³)
DateTimeUTC,F1_M11,P_M11,Q1_M11,Q2_M11,T1_M11,T2_M11,T3_M11,T4_M11,T5_M11,U1_M11,ZSPAN_M11,X0_M11,X2_M11,X1_M11
2022-03-17 15:00:00,,0828.1,4.99,0.00,21.9,21.4,00.0,31.1,23.6,18.5,0000.0,0001.19,0000.62,0000.40
2022-03-17 15:01:00,,0828.1,5.01,0.00,22.0,22.3,00.0,31.1,23.9,18.3,0000.0,0001.18,0000.62,0000.40
2022-03-17 15:02:00,,0828.1,5.01,0.00,22.2,23.0,00.0,31.1,24.2,18.2,0000.0,0001.15,0000.61,0000.41
2022-03-17 15:03:00,,0828.1,5.00,0.00,22.2,22.8,00.0,31.1,24.2,18.1,0000.0,0001.15,0000.62,0000.42
2022-03-17 15:04:00,,0828.1,4.99,0.00,22.2,22.5,00.0,31.2,24.1,18.0,0000.0,0001.17,0000.62,0000.42
2022-03-17 15:05:00,,0828.1,5.00,0.00,22.2,22.2,00.0,31.2,23.9,18.1,0000.0,0001.16,0000.63,0000.44
2022-03-17 15:06:00,,0828.1,4.99,0.00,22.1,22.0,00.0,31.2,23.8,18.1,0000.0,0001.19,0000.64,0000.45
2022-03-17 15:07:00,,0828.1,5.00,0.00,22.1,21.8,00.0,31.1,23.7,18.1,0000.0,0001.10,0000.63,0000.45
2022-03-17 15:08:00,,0828.2,5.00,0.00,22.0,21.6,00.0,31.1,23.7,18.1,0000.0,0000.99,0000.61,0000.45
2022-03-17 15:09:00,,0828.2,4.99,0.00,22.0,21.5,00.0,31.1,23.6,18.2,0000.0,0001.00,0000.60,0000.44
2022-03-17 15:10:00,,0828.2,5.00,0.00,22.0,21.4,00.0,31.1,23.6,18.2,0000.0,0000.97,0000.58,0000.44
2022-03-17 15:11:00,,0828.2,5.02,0.00,21.9,21.3,00.0,31.1,23.5,18.2,0000.0,0000.97,0000.58,0000.44
2022-03-17 15:12:00,,0828.2,5.00,0.00,21.9,21.3,00.0,31.1,23.5,18.3,0000.0,0000.98,0000.59,0000.44
2022-03-17 15:13:00,,0828.1,5.00,0.00,21.9,21.2,00.0,31.1,23.5,18.3,0000.0,0001.03,0000.60,0000.43
2022-03-17 15:14:00,,0828.2,5.00,0.00,21.9,21.2,00.0,31.0,23.5,18.3,0000.0,0001.15,0000.60,0000.42
2022-03-17 15:15:00,,0828.4,5.01,0.00,21.8,21.2,00.0,31.0,23.5,18.3,0000.0,0001.14,0000.60,0000.42
2022-03-17 15:16:00,,0828.2,5.00,0.00,21.8,21.1,00.0,31.0,23.4,18.2,0000.0,0001.07,0000.56,0000.40
2022-03-17 15:17:00,,0828.3,5.00,0.00,21.8,21.1,00.0,31.0,23.4,18.3,0000.0,0001.00,0000.53,0000.39
2022-03-17 15:18:00,,0828.2,4.99,0.00,21.8,21.1,00.0,31.0,23.4,18.3,0000.0,0000.95,0000.51,0000.38
2022-03-17 15:19:00,,0828.2,5.01,0.00,21.7,21.0,00.0,30.9,23.4,18.3,0000.0,0000.95,0000.51,0000.37
2022-03-17 15:20:00,,0828.3,5.00,0.00,21.7,21.0,00.0,30.9,23.3,18.3,0000.0,0000.90,0000.49,0000.36
2022-03-17 15:21:00,,0828.3,5.00,0.00,21.7,21.0,00.0,30.9,23.3,18.3,0000.0,0000.91,0000.49,0000.35
2022-03-17 15:22:00,,0828.4,5.00,0.00,21.7,21.5,00.0,30.9,23.5,18.2,0000.0,0000.91,0000.48,0000.34
2022-03-17 15:23:00,,0828.4,5.01,0.00,21.9,22.4,00.0,31.0,23.9,18.1,0000.0,0000.86,0000.45,0000.33
2022-03-17 15:24:00,,0828.3,4.99,0.00,22.1,23.1,00.0,31.0,24.1,18.0,0000.0,0000.87,0000.46,0000.32
2022-03-17 15:25:00,,0828.3,5.00,0.00,22.2,22.8,00.0,31.0,24.1,17.9,0000.0,0000.79,0000.46,0000.32
2022-03-17 15:26:00,,0828.4,5.00,0.00,22.2,22.5,00.0,31.0,24.0,17.8,0000.0,0000.76,0000.45,0000.31
2022-03-17 15:27:00,,0828.4,5.00,0.00,22.2,22.3,00.0,31.0,24.0,17.9,0000.0,0000.78,0000.46,0000.31
2022-03-17 15:28:00,,0828.3,5.02,0.00,22.1,22.1,00.0,31.1,23.9,17.9,0000.0,0000.78,0000.46,0000.30
2022-03-17 15:29:00,,0828.3,4.98,0.00,22.1,21.9,00.0,31.1,23.9,17.9,0000.0,0000.81,0000.46,0000.29
2022-03-17 15:30:00,,0828.4,5.01,0.00,22.1,21.8,00.0,31.1,23.8,17.9,0000.0,0000.88,0000.48,0000.29
2022-03-17 15:31:00,,0828.4,5.00,0.00,22.1,21.7,00.0,31.1,23.8,17.9,0000.0,0000.90,0000.48,0000.29
2022-03-17 15:32:00,,0828.4,5.00,0.00,22.0,21.6,00.0,31.1,23.8,18.0,0000.0,0000.89,0000.48,0000.29
2022-03-17 15:33:00,,0828.4,5.00,0.00,22.0,21.5,00.0,31.1,23.7,18.0,0000.0,0000.83,0000.45,0000.29
2022-03-17 15:34:00,,0828.4,5.01,0.00,22.0,21.5,00.0,31.1,23.7,17.9,0000.0,0000.78,0000.43,0000.28
2022-03-17 15:35:00,,0828.4,5.00,0.00,22.0,21.4,00.0,31.0,23.7,18.0,0000.0,0000.66,0000.39,0000.27
2022-03-17 15:36:00,,0828.4,4.99,0.00,22.0,21.4,00.0,31.0,23.7,18.0,0000.0,0000.64,0000.38,0000.26
2022-03-17 15:37:00,,0828.4,5.00,0.00,22.0,21.3,00.0,31.0,23.7,18.0,0000.0,0000.63,0000.37,0000.26
2022-03-17 15:38:00,,0828.5,5.01,0.00,21.9,21.3,00.0,31.0,23.7,18.0,0000.0,0000.73,0000.39,0000.26
2022-03-17 15:39:00,,0828.6,5.01,0.00,22.0,21.3,00.0,31.0,23.7,17.9,0000.0,0000.83,0000.42,0000.26
2022-03-17 15:40:00,,0828.6,4.99,0.00,21.9,21.3,00.0,31.0,23.7,18.0,0000.0,0000.87,0000.44,0000.27
2022-03-17 15:41:00,,0828.7,5.00,0.00,21.9,21.3,00.0,31.0,23.7,18.0,0000.0,0001.30,0000.43,0000.26
2022-03-17 15:42:00,,0829.0,5.00,0.00,21.9,21.2,00.0,31.0,23.7,18.0,0000.0,0002.10,0000.51,0000.26
2022-03-17 15:43:00,,0829.0,4.99,0.00,21.9,21.2,00.0,31.0,23.7,18.1,0000.0,0002.27,0000.56,0000.26
2022-03-17 15:44:00,,0829.0,5.00,0.00,21.9,21.2,00.0,31.0,23.7,18.2,0000.0,0002.31,0000.58,0000.26
2022-03-17 15:45:00,,0828.8,5.00,0.00,21.9,21.2,00.0,31.0,23.7,18.3,0000.0,0002.45,0000.63,0000.27
2022-03-17 15:46:00,,0828.7,5.00,0.00,21.9,21.2,00.0,31.0,23.7,18.3,0000.0,0002.58,0000.68,0000.28
2022-03-17 15:47:00,,0828.6,5.00,0.00,21.9,21.2,00.0,30.9,23.6,18.3,0000.0,0002.69,0000.71,0000.29
2022-03-17 15:48:00,,0828.7,5.00,0.00,21.9,21.7,00.0,31.0,23.8,18.3,0000.0,0002.74,0000.73,0000.28
2022-03-17 15:49:00,,0828.6,5.00,0.00,22.1,22.5,00.0,31.0,24.0,18.3,0000.0,0002.74,0000.75,0000.28
2022-03-17 15:50:00,,0828.7,5.01,0.00,22.3,23.2,00.0,31.1,24.3,18.1,0000.0,0002.70,0000.74,0000.28
2022-03-17 15:51:00,,0828.7,5.00,0.00,22.4,23.1,00.0,31.1,24.4,18.1,0000.0,0002.62,0000.71,0000.28
2022-03-17 15:52:00,,0828.7,5.00,0.00,22.4,22.9,00.0,31.1,24.4,18.1,0000.0,0002.28,0000.70,0000.28
2022-03-17 15:53:00,,0828.7,4.99,0.00,22.4,22.6,00.0,31.2,24.3,18.0,0000.0,0001.45,0000.67,0000.28
2022-03-17 15:54:00,,0828.7,5.01,0.00,22.4,22.4,00.0,31.2,24.3,18.1,0000.0,0001.35,0000.67,0000.29
2022-03-17 15:55:00,,0828.7,4.99,0.00,22.4,22.3,00.0,31.2,24.2,18.1,0000.0,0001.33,0000.66,0000.29
2022-03-17 15:56:00,,0828.7,5.00,0.00,22.4,22.1,00.0,31.2,24.2,18.1,0000.0,0001.26,0000.63,0000.29
2022-03-17 15:57:00,,0829.3,5.00,0.00,22.4,22.0,00.0,31.2,24.1,18.1,0000.0,0001.18,0000.61,0000.29
2022-03-17 15:58:00,,0829.3,5.00,0.00,22.3,21.9,00.0,31.2,24.1,18.1,0000.0,0001.10,0000.59,0000.30
2022-03-17 15:59:00,,0829.2,5.00,0.00,22.3,21.9,00.0,31.2,24.1,18.1,0000.0,0001.09,0000.58,0000.30
